STARLINK-34249

Last updated on Tue Sep 16 2025 00:02:07 GMT+0000 (Coordinated Universal Time)

1 65376U 25190AB 25258.48426401 -.00526211 00000+0 -61942-2 0 9997 2 65376 53.1593 265.3066 0001118 35.1040 325.0049 15.62457099 3304
UTC large
Height (km)
Speed (km/s)
/
Latitude / Longitude
Inclination (degrees)
Orbital Period (minutes)
Azimuth
Elevation
Range (km)
Doppler Factor

Next 0 passes for location: London (51.5072 / 0.1276)

Sorry there are no passes over London.